Vorticity
4 4 4 4 3 3 3 3 3 4 5 5 5 5 6 8 8 8 9 14 13 10 8 7 6 5 6 6 7 8 8 6 5 4 3 2 2 2 4 4 5 4 3 3 2 2 2 2 1 1 0 0 -0 -0 0 2 3 3 3 3 3 3 4 7 12 18 21 20 19 18 15 12 10 8 7 7 6 6 6 7 8 9 9 10 10 9 8 8 8 8 7 7 7 7 6 6 6 6 5 5 5 5 5
5 5 6 6 5 5 4 4 4 5 6 6 6 5 5 8 9 9 5 9 9 7 4 6 7 8 9 8 8 7 6 5 5 4 4 3 2 3 4 5 5 4 3 3 2 2 2 1 0 -0 -0 -0 -0 0 2 3 3 3 3 3 3 3 5 10 15 20 21 19 18 16 14 12 9 8 7 6 6 6 6 7 8 9 9 10 10 9 8 8 8 8 7 7 7 6 6 6 6 5 5 5 5 5 5
5 5 5 6 7 6 6 5 5 5 5 6 6 6 6 3 4 5 5 7 7 6 1 3 6 8 9 8 7 6 4 4 4 4 4 4 3 3 4 5 5 4 3 2 2 2 1 -0 -1 -1 -0 -0 0 2 3 3 3 3 3 3 3 4 6 12 17 20 19 17 16 14 13 11 10 8 7 7 6 6 7 8 9 9 9 10 10 9 8 7 7 7 7 7 7 6 6 6 5 5 5 5 5 5 5
5 4 4 4 6 6 6 4 3 3 3 6 8 8 7 4 4 4 6 6 7 6 2 2 4 6 8 8 6 5 3 3 3 4 4 4 4 4 4 6 6 5 3 2 2 2 0 -0 -0 -0 -0 0 1 2 4 4 3 3 2 3 3 5 8 14 17 18 16 14 14 13 12 11 10 8 8 7 7 7 7 8 8 8 8 9 9 9 8 8 7 7 7 7 7 6 6 6 5 5 5 5 5 5 5
5 4 4 2 2 3 3 2 2 1 2 6 8 10 9 7 7 7 7 7 7 7 6 2 0 1 3 6 6 5 4 3 3 4 4 4 4 4 5 6 6 5 3 3 2 2 1 0 0 0 0 1 2 3 4 3 3 2 2 3 4 6 10 15 16 15 12 12 12 12 11 10 9 9 8 8 7 7 6 6 6 6 7 8 9 9 9 8 8 7 7 7 6 6 6 5 5 5 5 5 5 5 5
3 4 4 2 1 1 2 2 3 3 3 5 7 8 9 8 8 8 8 8 8 8 7 4 0 -3 -3 2 6 8 7 5 4 4 5 5 5 5 6 7 6 5 3 3 3 2 2 1 1 1 1 2 2 3 3 2 2 2 2 3 5 8 13 16 15 13 10 10 10 10 10 10 9 9 9 8 7 6 5 5 5 6 8 9 10 10 9 8 8 7 7 7 6 6 6 6 5 5 5 5 5 5 5
1 3 4 4 2 1 1 2 3 3 1 3 4 5 7 7 7 8 8 8 7 7 6 5 2 -1 -2 1 6 9 10 7 6 5 5 5 5 6 7 7 6 4 3 3 3 2 1 1 1 1 2 2 3 3 2 2 2 2 2 3 6 9 14 16 14 11 8 8 9 10 10 10 9 10 10 10 8 6 6 6 6 8 10 10 10 10 9 8 7 7 6 6 6 5 6 6 6 5 5 5 5 5 5
0 1 2 3 3 2 1 1 2 2 -0 1 3 4 5 6 7 7 7 7 6 5 6 6 6 6 8 8 10 11 11 9 8 6 6 5 5 6 7 7 6 4 3 3 2 2 1 1 1 1 2 2 3 3 2 2 2 2 2 4 7 11 15 16 13 10 8 8 9 10 10 10 10 10 11 9 6 5 7 8 9 11 13 13 12 11 9 8 7 6 6 6 5 5 5 6 6 6 5 5 5 5 5
3 0 0 2 2 3 3 2 2 2 -0 -1 1 4 6 6 7 7 6 5 4 4 5 6 7 9 12 13 13 13 11 10 8 7 5 5 5 6 8 7 5 3 3 3 2 2 1 1 1 2 2 2 3 2 2 2 2 2 3 4 7 11 15 14 12 9 7 8 9 10 11 11 10 9 7 6 6 6 9 12 13 15 16 15 13 11 9 8 7 6 6 5 5 5 5 5 5 5 5 5 5 5 5
8 4 1 0 1 2 3 3 3 2 0 -1 -0 2 5 6 7 6 5 4 4 4 4 6 9 12 14 14 14 13 11 9 8 6 5 4 5 6 8 6 5 4 3 3 2 2 1 1 2 2 2 2 2 2 2 2 2 2 3 5 8 11 14 13 10 8 8 9 10 12 14 13 11 9 10 10 9 8 9 12 14 16 15 14 13 11 9 8 7 6 6 5 5 5 5 5 5 5 5 5 5 5 5
12 9 5 2 0 1 2 3 3 2 1 1 0 0 1 4 6 6 4 4 4 5 5 6 10 13 14 13 12 12 10 8 7 6 4 4 5 7 8 6 4 4 4 3 2 2 1 1 1 2 2 2 2 2 2 2 2 2 3 5 7 10 13 12 10 8 8 10 12 13 14 12 9 7 7 9 9 8 7 9 12 13 13 12 11 10 9 8 7 6 6 6 6 6 6 5 5 5 5 5 5 5 5
12 11 9 6 3 1 1 2 3 2 1 2 2 1 -0 2 4 5 4 3 4 6 6 8 10 13 12 11 11 11 10 8 6 5 4 4 6 7 7 5 4 4 4 2 2 1 1 1 2 2 2 2 2 2 1 1 2 2 3 4 7 10 12 11 9 8 10 11 11 11 11 8 6 5 6 7 7 7 6 8 10 11 10 9 8 8 8 8 7 7 6 6 6 6 6 6 5 5 5 5 5 4 5
9 10 11 9 7 4 2 2 2 2 0 1 2 2 2 2 4 5 5 4 4 6 6 9 11 12 11 10 11 12 11 9 7 5 4 4 6 7 7 5 4 4 3 2 2 1 1 2 2 2 2 2 2 1 1 1 2 2 3 4 6 9 11 10 9 8 9 9 8 8 7 5 4 5 6 7 6 6 6 8 9 9 9 8 7 6 7 7 7 7 7 6 6 6 6 6 6 5 5 4 4 4 5
7 8 9 10 9 8 6 4 3 3 2 1 1 2 4 4 5 5 6 4 4 5 6 9 11 12 11 11 11 11 10 8 6 4 4 4 6 7 6 5 4 4 3 2 1 1 2 2 2 2 2 2 2 1 1 2 2 3 3 4 6 8 11 10 9 7 7 6 6 6 7 6 6 7 7 7 6 6 6 8 8 8 8 7 7 6 6 6 6 7 7 7 7 6 6 6 6 5 5 5 5 5 5
6 4 5 7 8 9 8 7 5 4 3 2 1 1 2 5 6 5 5 5 5 5 6 9 11 12 13 13 11 8 6 5 4 4 4 5 5 6 5 4 4 3 2 2 2 2 2 2 2 2 2 2 1 1 1 2 2 3 3 4 6 8 11 11 9 8 7 6 6 7 9 9 8 7 7 7 6 6 7 8 8 8 8 7 7 7 7 6 6 6 6 6 6 6 6 6 6 5 5 5 5 5 5
7 4 2 2 4 6 8 8 7 6 4 4 2 1 0 3 5 6 5 5 5 6 7 8 10 13 16 16 11 5 2 4 4 4 4 4 5 5 4 3 3 2 2 2 2 2 2 2 2 2 2 2 1 1 1 2 3 3 3 3 5 8 10 11 10 8 6 5 6 7 9 9 8 7 6 6 6 7 7 8 8 8 7 7 7 7 7 7 7 7 7 6 6 6 6 6 5 5 5 5 5 5 5
8 7 3 -1 -1 0 3 5 6 6 5 5 4 2 -0 1 3 6 6 6 6 7 7 8 10 14 19 16 8 1 -1 3 4 4 4 4 4 4 3 2 2 2 2 2 2 2 2 2 2 2 2 2 1 1 1 2 2 3 2 3 4 7 10 10 9 7 5 5 5 6 7 8 7 7 6 6 7 7 8 8 8 7 7 7 7 8 8 8 7 7 7 6 6 6 6 5 5 5 5 5 5 5 5
8 10 7 2 -2 -4 -2 0 3 4 4 4 4 4 2 1 2 4 6 6 6 7 7 8 12 17 21 13 3 -3 -3 2 4 5 5 5 4 3 2 2 2 2 2 2 3 3 3 3 2 2 2 1 1 1 2 2 2 2 2 3 4 7 10 10 9 7 5 5 5 6 6 6 6 6 6 7 7 8 7 8 8 8 7 7 8 8 8 8 7 7 7 6 6 6 5 5 5 5 5 5 4 4 4
8 10 11 6 1 -4 -6 -4 -2 1 3 3 4 4 4 3 2 3 5 5 5 6 6 11 17 20 18 7 -0 -4 -2 3 5 6 6 5 4 3 2 2 3 3 3 4 3 3 3 3 3 2 2 1 1 1 2 2 2 3 3 3 4 6 9 10 10 8 6 5 5 5 6 6 6 6 6 7 8 8 7 7 8 8 8 8 8 8 8 8 7 7 6 6 6 5 5 5 5 5 5 5 5 5 5
7 9 11 10 6 1 -4 -6 -5 -3 -0 1 2 2 4 4 4 4 4 5 4 5 7 17 22 19 9 1 -2 -2 0 3 5 7 7 6 4 3 2 3 4 4 5 5 4 4 4 3 3 2 2 1 1 2 2 2 3 3 3 3 4 6 8 10 10 8 6 6 5 5 5 6 6 6 6 7 8 8 7 8 8 8 8 8 8 8 8 8 8 7 6 6 6 5 5 5 5 5 5 5 5 5 5
8 8 10 10 9 6 1 -3 -6 -6 -4 -1 0 1 0 2 4 4 4 4 4 5 10 23 21 10 -2 -2 -1 0 3 4 5 6 7 6 4 3 2 3 4 5 6 6 5 5 4 4 3 2 1 1 1 2 2 3 3 3 3 3 4 5 8 9 9 9 7 6 5 5 5 5 5 6 6 7 8 8 8 9 9 9 8 8 8 8 9 8 8 7 7 6 6 6 5 5 5 5 5 6 6 6 6
9 8 8 9 10 9 6 2 -2 -4 -5 -2 0 1 0 -0 1 4 5 4 3 5 11 20 13 1 -4 0 2 4 5 5 5 6 7 6 4 3 2 3 4 6 6 6 6 5 5 4 3 2 1 1 1 2 2 3 3 3 3 3 4 5 7 8 9 8 7 6 6 6 5 5 6 6 6 6 7 8 9 10 10 9 9 8 8 8 9 8 8 7 7 6 6 6 6 6 6 6 6 6 6 6 6
10 9 8 8 9 9 8 6 3 0 -2 -2 0 2 3 0 0 2 4 4 4 4 8 11 5 -1 2 6 7 6 6 5 5 5 6 6 5 3 2 3 5 6 6 6 6 6 5 4 3 2 2 1 1 2 3 3 3 3 3 3 3 4 6 8 8 8 7 6 6 6 6 6 6 6 6 6 7 8 10 10 10 10 9 8 8 8 8 8 8 7 7 6 6 6 6 6 6 6 6 6 6 6 6
13 11 9 8 8 8 9 8 7 4 2 1 2 4 5 3 3 4 6 6 5 6 9 8 4 2 7 9 8 6 4 4 4 4 6 6 5 4 3 4 5 6 7 7 6 6 5 4 3 2 2 1 1 2 3 3 3 3 3 3 3 4 6 7 8 8 7 7 6 6 6 6 6 5 5 6 7 8 10 11 11 10 9 8 8 8 8 8 7 7 7 6 6 6 6 6 7 7 7 7 6 6 6
16 13 10 9 8 8 8 8 8 6 5 4 4 5 6 5 4 6 13 9 7 8 16 12 7 4 7 9 7 5 2 2 3 4 5 5 5 4 4 5 6 7 8 7 6 6 5 4 3 2 2 1 1 2 3 4 4 4 3 3 3 3 5 7 8 8 7 7 6 6 6 5 5 5 5 6 7 9 11 11 11 10 9 8 7 7 7 7 7 7 7 7 7 7 7 7 7 7 7 7 7 6 6
19 17 13 11 9 8 8 8 8 7 6 6 6 6 7 5 2 2 11 12 10 11 21 14 9 7 9 9 6 4 1 1 3 5 6 5 5 5 5 6 7 8 8 7 6 6 5 4 3 2 2 1 1 2 3 4 4 4 4 3 3 3 4 6 8 8 8 7 6 6 5 5 5 5 6 7 9 11 12 12 11 10 8 8 7 7 7 7 7 7 7 7 7 7 8 8 8 7 7 7 7 6 6
21 20 17 14 11 9 8 8 8 8 7 7 7 7 7 7 1 -2 6 15 15 13 16 7 8 13 16 11 6 3 1 -0 0 2 4 4 5 6 6 7 8 8 8 7 6 5 5 4 3 2 2 1 2 2 4 4 4 4 4 3 2 3 4 6 7 8 8 7 6 6 5 5 5 6 7 9 11 12 13 12 10 9 8 7 7 7 7 7 7 7 7 8 8 8 8 8 8 7 7 7 7 7 7
20 22 21 17 14 11 10 9 8 8 7 7 7 7 7 8 3 -3 -7 11 19 16 3 -6 4 17 19 10 5 3 2 1 0 0 2 2 4 6 7 8 8 8 8 7 6 5 5 4 3 2 1 2 2 3 4 4 4 4 4 3 2 2 3 5 7 8 8 7 6 6 5 5 5 6 8 10 12 13 13 12 10 9 8 8 8 8 8 8 8 8 8 8 8 8 8 8 7 7 7 7 7 7 7
19 22 22 20 17 14 12 10 9 8 8 7 7 7 7 8 6 1 -10 1 15 21 6 -6 2 14 13 4 1 0 1 1 1 0 0 0 2 5 8 9 9 8 8 7 6 5 4 3 2 2 1 2 3 4 4 4 4 4 3 3 2 2 3 5 7 8 9 8 7 6 5 5 5 7 8 10 12 13 12 11 10 9 9 9 10 10 10 9 9 9 9 8 8 8 7 7 7 6 6 7 7 7 8
17 20 22 22 20 18 15 12 11 9 8 8 8 7 7 7 8 6 -2 -10 -1 12 14 6 5 5 1 -5 -6 -3 -1 1 2 2 1 0 2 4 9 10 9 8 7 6 5 4 3 2 2 1 1 2 3 4 5 5 4 4 3 3 2 2 2 4 6 8 9 8 7 6 5 5 6 7 9 10 11 12 11 10 10 10 10 10 11 11 10 10 9 9 8 8 8 7 7 6 6 6 6 6 7 7 8
15 18 21 22 22 20 18 15 13 11 10 9 8 8 7 7 8 9 8 -9 -12 -5 11 15 11 3 -8 -10 -9 -5 -1 2 4 4 4 2 3 5 9 10 9 7 6 5 4 3 2 2 1 1 1 2 4 4 4 5 4 4 4 3 3 2 2 4 6 7 9 8 7 6 5 5 7 8 10 10 11 10 10 10 10 10 10 10 10 10 10 9 9 8 8 8 7 7 6 6 6 6 6 6 6 7 7
13 15 18 21 22 21 20 17 15 13 11 10 9 8 8 7 8 9 11 4 -7 -12 -0 13 16 10 -3 -7 -7 -3 0 4 6 6 5 4 5 6 9 10 8 5 2 1 2 2 2 1 0 0 2 4 4 4 4 5 5 4 4 3 3 2 2 3 5 7 9 9 8 6 5 6 8 10 11 10 10 9 9 9 10 10 10 10 10 10 9 9 8 8 8 7 7 7 7 7 7 7 7 7 7 7 7
11 13 15 18 20 20 20 19 17 15 13 12 10 9 8 8 8 8 10 10 3 -6 -8 5 12 13 8 2 0 1 3 6 7 6 4 4 5 7 10 11 8 5 1 1 2 3 3 0 -0 1 4 4 3 2 3 5 5 4 3 3 3 2 2 3 5 7 8 9 8 6 5 7 9 11 12 10 8 7 7 9 10 10 10 10 10 9 9 8 8 8 8 7 7 7 7 7 7 7 7 7 7 7 7
9 10 12 15 17 19 20 20 19 18 16 14 12 10 9 8 8 8 8 10 9 4 -5 -2 3 8 10 7 5 5 7 10 8 4 0 2 4 6 9 11 10 8 6 4 4 4 2 -0 0 3 7 5 2 1 3 4 5 4 3 3 2 2 2 3 4 6 8 9 8 7 6 8 10 12 13 10 8 6 6 8 10 11 11 10 10 10 9 9 8 8 7 7 7 7 7 7 6 6 6 6 7 7 6
7 8 10 12 14 16 18 19 19 19 18 16 14 12 10 9 8 7 7 9 10 8 1 -6 -4 2 6 7 7 9 12 14 9 2 -2 1 3 4 7 11 12 11 8 6 5 4 2 2 5 9 13 5 1 0 3 4 4 4 3 3 2 2 2 2 4 6 8 9 9 8 7 9 11 13 13 11 9 7 7 9 10 10 10 10 10 10 10 9 9 8 7 7 7 6 6 6 6 6 6 6 6 6 6
6 7 8 10 12 14 15 17 18 19 19 17 16 14 12 10 9 8 7 8 9 10 6 -2 -4 -1 4 7 10 12 15 14 8 1 -2 -0 2 4 6 9 12 13 9 6 3 2 2 9 18 23 19 5 -0 1 4 4 4 3 3 2 2 2 2 2 3 5 8 9 9 8 8 9 11 12 12 10 10 9 9 9 8 8 8 9 10 10 10 10 9 8 7 7 6 6 6 6 6 6 6 6 6 6 6
5 6 6 8 9 11 13 14 16 18 19 18 17 15 13 11 10 8 7 8 9 10 9 4 2 2 5 10 13 16 17 12 5 -1 -4 -2 1 4 6 8 12 13 12 6 1 -1 1 14 27 31 17 4 0 2 5 4 3 3 2 2 2 2 2 2 3 4 7 8 8 8 7 7 8 9 9 8 8 8 8 8 7 7 7 8 8 9 9 9 8 8 7 7 6 6 6 6 6 6 6 6 6 6 6
4 5 5 6 7 9 10 12 14 16 18 18 18 17 14 12 11 9 8 8 9 10 11 9 7 6 8 14 18 19 18 9 1 -5 -7 -4 1 5 6 8 11 14 14 6 2 0 2 9 15 16 6 2 2 4 5 4 3 2 2 2 2 2 2 2 3 5 7 8 8 8 7 6 6 6 7 7 7 7 7 7 7 7 8 8 8 9 8 8 7 7 8 7 7 6 6 5 5 5 6 6 6 6 6
5 5 5 6 6 8 9 10 11 14 16 18 18 17 16 13 12 11 9 9 9 10 12 10 7 5 8 14 18 19 17 9 1 -5 -7 -3 2 6 7 8 11 14 14 6 2 2 5 3 -0 -3 -1 2 4 5 4 3 2 2 2 2 2 2 2 2 3 5 7 8 9 8 7 7 7 7 7 7 6 6 7 7 7 8 10 11 12 12 10 8 7 7 7 8 8 7 6 6 5 5 5 6 6 6 6
6 5 6 6 6 7 7 8 9 11 14 16 18 18 17 14 13 11 10 9 10 11 13 8 2 -2 3 9 13 16 15 11 7 4 0 1 3 6 7 7 10 13 14 6 0 0 5 1 -5 -7 -2 3 5 5 4 3 2 2 2 2 2 2 2 2 3 4 7 8 9 9 8 6 6 7 8 6 6 6 7 7 7 8 9 12 13 13 10 9 8 7 6 7 8 8 7 6 5 5 5 5 6 6 6
7 6 7 7 7 7 7 7 8 9 12 15 17 18 17 15 13 12 10 10 10 12 14 7 -3 -9 -4 2 7 10 13 14 15 14 10 5 5 7 7 7 9 12 14 6 -0 -2 1 -0 -3 -3 1 4 6 6 5 3 2 2 2 2 2 2 2 2 2 4 6 8 9 10 8 6 6 7 7 6 6 7 8 7 6 5 5 6 6 5 4 6 8 8 6 7 8 8 8 6 5 5 5 5 6 6 6
9 8 8 8 8 8 8 7 7 8 10 13 16 17 17 16 14 12 11 10 11 13 14 8 -2 -8 -6 -0 5 10 14 18 20 20 16 9 7 7 7 6 8 10 14 7 1 -3 -2 -0 -0 -0 2 5 6 6 5 3 2 1 2 2 2 2 2 2 2 4 6 7 9 10 9 6 6 7 7 7 7 8 9 8 6 5 3 -0 -3 -4 -3 1 4 6 6 6 7 9 9 7 6 5 5 5 5 6 6
11 9 9 9 10 10 9 8 7 7 8 12 15 17 17 16 14 12 11 11 11 13 14 10 6 2 1 5 10 16 22 24 22 18 13 9 7 6 6 5 6 9 12 8 3 -1 -1 1 1 1 2 4 6 6 6 3 2 1 2 2 2 2 2 2 2 3 6 7 8 9 9 7 6 7 7 7 8 8 9 8 7 5 2 -2 -3 -3 -3 -3 -0 2 4 5 7 9 9 7 6 5 4 5 5 5 6
12 10 9 10 10 11 10 9 8 7 7 10 14 16 17 16 14 12 12 11 12 12 13 12 11 10 8 12 18 24 29 30 25 17 11 8 6 5 4 3 5 8 11 8 4 1 1 2 2 2 2 4 5 6 6 4 2 1 2 2 2 2 2 2 2 3 5 7 8 8 10 7 7 7 7 7 7 7 6 5 3 0 -3 -4 -2 -0 -0 -2 -1 2 4 5 8 9 8 6 5 4 4 4 5 5 5
13 12 10 10 10 11 12 10 9 7 7 9 12 16 17 16 14 12 11 11 12 12 11 11 9 8 6 12 18 24 26 27 24 18 12 7 5 4 4 2 3 6 10 7 4 2 3 4 3 2 2 4 6 7 7 4 2 1 1 2 2 2 2 2 2 4 5 7 8 9 9 8 7 7 6 6 6 5 2 -1 -3 -5 -7 -6 -3 -1 -0 0 2 5 5 7 9 10 7 6 4 4 4 4 5 5 5
13 12 10 10 10 11 12 11 10 8 7 9 12 15 17 16 14 12 10 11 12 12 10 8 4 0 -4 2 9 15 17 18 18 16 12 8 6 6 7 3 2 3 7 6 3 2 3 4 4 3 3 5 8 10 10 6 3 1 1 1 2 2 2 2 2 4 5 7 8 9 8 7 7 7 6 6 5 3 -1 -4 -6 -7 -6 -4 -2 -1 -0 3 6 7 6 9 10 9 7 5 4 4 4 4 4 5 5
12 12 10 9 10 10 12 11 10 9 8 8 11 14 17 17 15 12 10 10 11 12 10 5 0 -5 -12 -9 -4 2 7 10 12 13 13 10 8 7 9 6 4 3 4 5 4 3 4 6 8 8 6 6 8 11 12 7 3 0 0 1 2 2 2 2 3 4 5 7 8 8 8 7 6 6 6 6 4 2 -1 -2 -4 -4 -2 -1 0 2 4 6 7 7 8 10 10 8 6 5 4 4 4 4 4 5 5
11 11 10 9 9 10 11 11 11 10 8 8 10 13 16 17 16 13 10 10 10 10 9 4 -2 -7 -13 -13 -11 -7 -2 2 6 10 15 15 12 7 5 7 7 6 5 4 4 4 4 8 11 12 10 8 9 11 13 7 3 0 0 2 2 3 3 3 3 4 5 7 8 8 8 7 6 7 8 7 5 4 3 2 2 2 4 7 10 11 10 8 7 7 9 9 8 7 6 5 4 4 4 4 4 5 5
10 10 10 9 9 9 11 11 11 10 9 8 10 12 16 18 17 15 12 10 10 10 8 4 -1 -7 -12 -13 -11 -9 -7 -3 1 5 10 16 15 10 3 2 5 7 6 4 2 0 -0 4 8 10 9 9 11 13 14 8 3 0 1 2 2 3 3 3 3 4 5 7 8 8 8 7 6 7 8 7 7 6 7 7 8 9 12 14 14 13 10 8 8 9 9 8 8 6 5 5 4 4 4 4 4 5 5
9 10 9 8 8 9 10 11 11 10 9 8 9 11 14 17 17 16 13 11 11 10 9 6 1 -5 -10 -9 -8 -6 -5 -2 0 2 4 8 12 12 7 1 2 5 7 4 0 -3 -6 -1 3 6 6 8 12 14 14 8 3 1 1 2 2 2 2 2 3 4 6 8 9 9 8 7 7 7 9 7 7 8 10 11 11 12 13 13 12 11 10 9 9 9 8 8 7 6 5 5 5 5 4 4 4 4 5
9 9 9 8 8 8 9 11 11 11 9 8 8 10 12 16 17 17 14 12 11 10 10 7 4 -1 -6 -6 -4 -1 -0 1 0 0 2 5 7 9 8 5 6 8 9 6 3 -1 -5 -5 -1 3 6 8 11 13 14 8 4 1 1 1 1 1 2 2 3 4 6 8 9 9 8 7 7 8 9 8 9 10 12 12 12 12 11 10 9 8 8 8 8 8 8 7 6 6 6 6 6 5 5 4 4 4 4
8 9 9 8 7 7 8 10 11 11 10 9 8 9 11 14 16 17 15 13 11 10 10 8 7 5 1 -0 2 3 3 4 1 -1 2 8 8 5 4 4 9 13 14 10 7 4 1 -3 -2 1 6 9 10 12 12 6 2 0 1 1 0 -0 0 2 3 5 7 8 9 9 8 7 6 7 8 8 9 10 10 10 9 9 8 7 7 7 7 8 8 8 7 7 6 6 6 6 6 6 5 4 4 4 5
8 9 9 8 7 7 7 8 10 11 10 9 9 9 10 13 15 17 16 13 12 10 10 8 8 8 8 6 6 7 5 4 1 -1 -0 7 9 6 -2 -2 6 16 18 16 12 9 8 5 3 3 8 10 11 12 12 5 1 0 2 2 1 -0 -0 2 4 6 8 8 8 8 8 7 7 6 6 6 7 7 6 6 6 6 6 7 7 7 7 7 7 7 7 6 6 6 6 7 6 6 5 4 4 4 5
7 8 9 8 7 6 6 7 9 10 10 10 9 9 9 12 14 16 16 14 12 10 9 8 7 7 8 8 8 9 9 4 1 -1 -4 0 7 10 1 -6 -0 10 15 19 16 12 9 10 9 7 9 11 13 15 15 11 6 4 3 3 1 -0 -0 2 5 7 8 8 8 8 8 8 7 7 6 6 6 6 6 6 6 7 7 7 7 7 7 7 7 7 6 6 6 7 7 7 6 6 5 4 4 5 6
6 7 8 8 7 6 5 6 7 9 10 10 10 9 9 11 13 15 16 14 13 11 10 9 7 6 6 7 7 8 11 8 4 -0 -4 -4 1 7 8 3 1 3 8 15 17 15 12 14 12 9 7 8 13 18 22 19 13 7 4 3 1 -0 -1 2 5 8 9 8 8 8 7 7 7 7 7 7 7 7 7 7 7 7 7 7 7 7 6 6 6 6 6 7 7 8 8 8 7 6 5 5 5 5 6
5 6 7 7 7 6 5 5 6 8 10 10 10 9 8 10 12 14 16 15 13 11 10 9 8 7 7 6 4 4 6 9 7 2 -3 -2 2 7 13 12 7 3 5 14 17 16 14 14 13 11 8 7 9 15 22 21 15 8 4 3 1 -0 -1 1 4 6 8 8 8 7 6 6 6 7 7 7 7 7 7 7 7 6 6 6 6 6 6 6 6 7 7 8 8 8 8 8 7 6 5 5 5 6 7
4 5 6 6 6 6 5 4 5 7 9 10 10 10 9 10 12 14 16 15 13 11 9 9 8 8 7 6 4 1 -0 4 6 4 -2 1 5 10 16 16 11 6 7 17 21 20 15 12 13 15 14 11 9 10 15 17 14 9 6 4 3 2 0 1 3 6 8 8 7 7 7 6 6 6 6 6 6 6 6 6 6 6 6 6 6 6 6 6 7 7 8 8 8 8 7 7 7 6 6 5 6 7 7
3 4 5 6 6 5 4 4 4 6 8 9 10 10 10 10 11 13 15 16 14 12 9 8 7 7 7 6 4 2 -2 -1 0 2 0 1 4 8 14 16 13 8 4 13 18 18 16 13 15 17 13 13 10 8 10 13 12 9 6 4 4 4 4 2 4 6 8 8 8 7 7 7 7 6 6 6 6 6 7 7 7 7 7 7 7 7 7 8 8 8 8 8 7 7 7 7 7 6 6 6 6 7 8
3 4 4 5 5 5 4 4 4 5 7 8 10 10 10 10 10 12 15 16 15 13 10 8 7 6 7 6 4 3 1 -1 -2 -2 -1 0 3 6 10 13 12 8 3 9 12 13 14 15 18 18 14 8 6 6 8 11 11 8 4 2 4 6 6 5 5 6 8 8 8 8 8 8 7 7 6 7 7 7 8 8 8 8 8 8 8 8 8 8 8 8 8 7 7 7 7 7 7 7 6 7 7 8 8
2 3 4 4 4 4 4 4 4 4 6 7 9 10 10 10 10 11 14 16 15 14 11 8 7 6 6 6 4 3 3 2 -0 -3 -5 -2 1 4 7 10 9 7 5 11 14 16 14 20 26 28 24 12 7 7 10 13 11 7 0 -1 2 6 7 7 7 7 8 8 8 8 8 8 8 7 7 8 8 9 9 9 9 9 8 8 8 8 8 8 8 7 7 7 7 7 7 7 7 7 7 7 8 8 8
2 3 4 4 4 4 4 3 3 4 5 6 8 9 10 11 11 11 13 15 16 14 12 9 8 6 6 5 4 4 3 4 3 -1 -7 -6 -2 3 5 8 8 7 6 14 20 22 20 24 30 34 32 24 16 12 12 12 12 9 1 -3 -1 4 7 7 7 7 8 8 8 9 9 8 7 7 8 8 9 9 9 9 9 9 8 8 7 7 7 7 7 7 7 7 7 7 7 8 8 8 8 8 8 8 8
Height
3145 3145 3145 3146 3146 3146 3146 3146 3147 3147 3147 3147 3147 3147 3147 3148 3148 3148 3149 3149 3149 3150 3150 3150 3150 3150 3150 3150 3150 3150 3150 3150 3150 3150 3151 3152 3152 3153 3153 3153 3153 3153 3153 3153 3153 3153 3153 3153 3152 3152 3152 3152 3152 3152 3151 3151 3151 3150 3150 3148 3147 3146 3146 3145 3144 3144 3143 3142 3142 3141 3141 3141 3140 3140 3140 3140 3140 3140 3140 3140 3140 3140 3140 3140 3140 3140 3140 3140 3140 3140 3140 3140 3140 3141 3141 3141 3140 3140 3140 3140 3140 3141 3141
3144 3144 3144 3145 3145 3145 3145 3145 3145 3145 3145 3145 3146 3146 3146 3147 3147 3148 3148 3148 3149 3149 3149 3149 3149 3149 3149 3149 3149 3149 3149 3149 3149 3150 3150 3151 3151 3152 3152 3152 3152 3152 3152 3152 3152 3152 3152 3152 3152 3151 3151 3151 3151 3151 3151 3150 3150 3150 3149 3148 3147 3146 3145 3144 3143 3143 3142 3141 3141 3140 3140 3140 3140 3139 3139 3139 3139 3139 3139 3140 3139 3139 3139 3139 3139 3139 3139 3139 3139 3140 3140 3140 3140 3140 3140 3140 3140 3140 3140 3140 3140 3140 3140
3143 3143 3143 3144 3144 3144 3144 3145 3145 3145 3145 3145 3145 3145 3145 3146 3147 3147 3146 3147 3148 3148 3148 3148 3148 3148 3148 3148 3148 3148 3148 3148 3148 3149 3149 3150 3150 3151 3151 3151 3151 3151 3151 3151 3152 3152 3152 3152 3151 3151 3151 3151 3150 3150 3150 3150 3149 3149 3148 3147 3146 3145 3144 3143 3142 3142 3141 3141 3140 3140 3140 3139 3139 3139 3139 3138 3138 3138 3139 3139 3139 3139 3138 3138 3138 3139 3139 3139 3139 3139 3139 3139 3140 3140 3140 3139 3139 3139 3139 3139 3139 3139 3139
3141 3142 3142 3143 3143 3143 3144 3144 3144 3144 3144 3144 3144 3144 3144 3145 3145 3145 3146 3146 3147 3147 3147 3147 3147 3147 3147 3147 3147 3147 3147 3147 3147 3148 3148 3149 3150 3150 3150 3150 3150 3150 3150 3150 3151 3151 3151 3151 3151 3150 3150 3150 3150 3150 3149 3149 3148 3147 3147 3146 3145 3144 3143 3142 3141 3141 3140 3140 3140 3139 3139 3139 3138 3138 3138 3138 3138 3138 3138 3138 3138 3138 3138 3138 3138 3138 3138 3138 3138 3138 3138 3138 3139 3139 3139 3138 3138 3138 3138 3138 3138 3138 3139
3140 3140 3141 3141 3142 3143 3143 3143 3143 3143 3143 3144 3143 3143 3143 3143 3144 3145 3145 3145 3146 3146 3146 3146 3146 3146 3147 3146 3146 3146 3146 3146 3146 3147 3147 3148 3149 3149 3149 3150 3150 3149 3149 3150 3150 3150 3150 3150 3150 3150 3150 3149 3149 3149 3148 3148 3147 3146 3146 3145 3144 3143 3142 3141 3141 3140 3140 3140 3139 3139 3138 3138 3138 3138 3138 3138 3137 3137 3138 3138 3138 3137 3137 3137 3137 3137 3137 3137 3137 3137 3137 3137 3138 3137 3137 3137 3137 3138 3138 3138 3138 3138 3138
3139 3139 3140 3140 3140 3141 3141 3141 3142 3142 3142 3143 3143 3142 3141 3142 3142 3143 3144 3144 3145 3145 3145 3145 3145 3145 3145 3145 3145 3145 3145 3145 3145 3145 3146 3147 3147 3148 3148 3149 3149 3148 3148 3149 3149 3149 3149 3149 3149 3149 3149 3148 3148 3148 3148 3147 3146 3146 3145 3144 3143 3143 3142 3141 3140 3140 3139 3139 3138 3138 3138 3137 3137 3137 3137 3137 3137 3137 3137 3137 3137 3137 3136 3136 3136 3136 3136 3136 3136 3136 3136 3136 3136 3136 3136 3136 3136 3137 3137 3137 3137 3137 3137
3137 3138 3138 3139 3139 3140 3140 3140 3140 3140 3141 3141 3142 3141 3140 3140 3141 3142 3143 3143 3143 3144 3144 3144 3144 3144 3144 3144 3144 3144 3144 3144 3144 3145 3145 3146 3146 3147 3147 3148 3147 3147 3147 3148 3148 3148 3148 3148 3148 3148 3148 3147 3147 3147 3147 3146 3146 3145 3144 3144 3143 3142 3141 3140 3140 3139 3139 3138 3138 3137 3137 3136 3136 3136 3136 3136 3137 3137 3137 3136 3136 3136 3136 3136 3136 3136 3136 3135 3135 3135 3135 3135 3135 3135 3135 3135 3135 3136 3136 3136 3136 3136 3136
3136 3136 3137 3137 3138 3138 3139 3139 3139 3139 3140 3140 3140 3140 3139 3140 3140 3141 3141 3141 3142 3142 3143 3143 3142 3142 3143 3143 3142 3143 3143 3143 3143 3144 3144 3145 3145 3146 3146 3146 3146 3146 3146 3147 3147 3147 3147 3147 3147 3147 3147 3147 3146 3146 3146 3145 3145 3145 3144 3143 3142 3141 3140 3140 3139 3139 3138 3138 3137 3137 3136 3136 3135 3135 3135 3136 3136 3136 3136 3136 3135 3135 3135 3135 3135 3135 3135 3135 3135 3135 3135 3135 3135 3135 3135 3135 3135 3135 3135 3135 3135 3135 3135
3135 3135 3135 3135 3136 3136 3137 3137 3138 3138 3138 3138 3139 3139 3138 3139 3140 3140 3140 3140 3141 3141 3141 3141 3141 3141 3141 3141 3141 3141 3141 3141 3142 3142 3143 3144 3144 3145 3145 3145 3145 3145 3145 3146 3146 3146 3146 3146 3146 3146 3146 3146 3146 3145 3145 3145 3145 3144 3143 3142 3141 3140 3140 3139 3139 3138 3138 3137 3137 3136 3136 3135 3135 3135 3135 3135 3135 3136 3135 3135 3135 3135 3135 3135 3135 3135 3135 3135 3134 3134 3134 3134 3134 3134 3134 3134 3134 3134 3134 3134 3134 3134 3134
3133 3133 3134 3134 3135 3135 3135 3135 3136 3136 3136 3137 3137 3137 3137 3138 3138 3139 3139 3140 3140 3140 3140 3140 3140 3140 3140 3140 3140 3140 3140 3140 3140 3141 3142 3143 3143 3144 3144 3144 3144 3144 3145 3145 3145 3145 3145 3145 3145 3145 3145 3145 3145 3145 3145 3144 3144 3143 3142 3141 3140 3140 3139 3138 3138 3137 3137 3136 3136 3135 3135 3135 3135 3135 3134 3134 3134 3135 3135 3135 3134 3134 3134 3134 3134 3134 3134 3134 3134 3134 3134 3134 3134 3134 3133 3133 3133 3133 3133 3133 3133 3133 3133
3130 3131 3132 3132 3133 3133 3134 3134 3134 3135 3135 3135 3135 3135 3135 3136 3137 3138 3138 3138 3138 3139 3139 3139 3139 3138 3139 3139 3139 3138 3139 3139 3140 3140 3141 3141 3142 3143 3143 3143 3143 3143 3144 3144 3144 3144 3144 3144 3144 3144 3144 3144 3144 3144 3144 3143 3143 3142 3142 3140 3140 3139 3138 3138 3137 3137 3136 3136 3135 3135 3134 3135 3135 3134 3133 3132 3132 3133 3133 3134 3134 3133 3133 3133 3133 3133 3133 3133 3133 3133 3133 3133 3133 3133 3133 3133 3133 3133 3133 3133 3132 3132 3132
3129 3129 3130 3130 3131 3131 3132 3132 3133 3133 3134 3134 3134 3134 3134 3135 3135 3136 3137 3137 3137 3137 3137 3137 3137 3137 3138 3138 3138 3137 3137 3138 3138 3139 3140 3140 3141 3142 3142 3142 3142 3142 3142 3143 3143 3143 3143 3143 3143 3143 3143 3143 3143 3143 3143 3142 3142 3141 3141 3140 3139 3138 3137 3137 3137 3136 3136 3135 3135 3134 3134 3134 3134 3133 3132 3131 3131 3132 3132 3133 3133 3133 3133 3133 3132 3132 3132 3132 3132 3132 3132 3132 3132 3132 3132 3132 3132 3132 3132 3132 3132 3132 3131
3126 3127 3128 3128 3129 3130 3130 3130 3131 3131 3132 3132 3132 3132 3133 3133 3134 3135 3135 3135 3135 3135 3135 3135 3135 3135 3136 3136 3136 3136 3136 3137 3137 3138 3138 3139 3140 3140 3140 3141 3141 3141 3141 3141 3142 3142 3142 3142 3142 3142 3142 3142 3142 3142 3142 3141 3141 3141 3140 3139 3138 3137 3137 3136 3136 3136 3135 3135 3134 3134 3135 3134 3134 3133 3132 3132 3131 3131 3132 3132 3132 3132 3132 3132 3132 3132 3132 3132 3132 3132 3132 3132 3132 3131 3131 3131 3131 3131 3131 3131 3131 3131 3131
3124 3125 3125 3126 3127 3127 3128 3129 3129 3130 3130 3130 3130 3130 3131 3131 3132 3133 3134 3134 3134 3133 3134 3134 3134 3134 3135 3135 3136 3135 3135 3135 3136 3137 3138 3139 3139 3140 3140 3140 3140 3140 3140 3140 3141 3141 3141 3141 3141 3141 3141 3141 3141 3141 3141 3140 3140 3140 3139 3138 3137 3137 3136 3136 3136 3135 3135 3135 3134 3134 3134 3134 3134 3133 3132 3132 3131 3131 3131 3131 3131 3131 3131 3131 3131 3131 3131 3131 3131 3131 3131 3131 3131 3131 3131 3131 3130 3130 3130 3130 3130 3130 3130
3122 3123 3123 3124 3125 3125 3126 3126 3127 3128 3128 3128 3128 3128 3129 3130 3130 3131 3132 3132 3132 3132 3132 3132 3132 3132 3133 3135 3135 3135 3135 3135 3135 3136 3137 3138 3138 3138 3138 3139 3139 3139 3139 3140 3140 3140 3140 3140 3140 3140 3140 3140 3140 3140 3140 3140 3139 3139 3138 3137 3136 3135 3135 3135 3135 3135 3135 3134 3134 3134 3133 3133 3133 3133 3132 3132 3131 3131 3131 3131 3131 3130 3130 3130 3130 3130 3130 3130 3130 3130 3130 3130 3130 3130 3130 3130 3130 3130 3130 3130 3130 3129 3129
3120 3120 3121 3122 3122 3123 3124 3124 3125 3126 3126 3126 3127 3127 3127 3128 3128 3129 3130 3130 3130 3130 3130 3130 3130 3131 3132 3133 3135 3135 3135 3135 3135 3135 3136 3137 3137 3137 3137 3137 3138 3138 3138 3139 3139 3140 3140 3140 3139 3139 3139 3139 3139 3139 3139 3139 3138 3138 3137 3136 3135 3135 3134 3134 3134 3134 3134 3134 3134 3133 3132 3131 3131 3132 3132 3131 3131 3131 3130 3130 3130 3130 3130 3130 3130 3130 3130 3129 3129 3129 3129 3129 3129 3129 3129 3129 3129 3129 3129 3129 3129 3129 3128
3117 3118 3119 3120 3120 3121 3121 3122 3123 3124 3124 3124 3125 3125 3126 3125 3126 3127 3128 3129 3129 3128 3129 3129 3129 3130 3131 3132 3133 3134 3134 3134 3134 3135 3135 3136 3136 3136 3136 3136 3136 3137 3137 3138 3138 3139 3139 3139 3138 3138 3138 3138 3138 3138 3138 3138 3137 3137 3136 3135 3135 3134 3133 3133 3133 3133 3133 3133 3133 3132 3131 3130 3130 3130 3130 3130 3130 3130 3130 3130 3129 3129 3129 3129 3129 3129 3129 3129 3128 3128 3128 3128 3128 3128 3128 3128 3128 3128 3128 3128 3128 3128 3127
3115 3115 3116 3117 3118 3118 3119 3120 3121 3121 3122 3122 3123 3123 3124 3124 3123 3124 3126 3127 3127 3127 3128 3129 3129 3129 3130 3131 3132 3134 3134 3134 3134 3134 3135 3135 3135 3135 3135 3135 3135 3136 3136 3137 3137 3137 3137 3137 3137 3137 3137 3137 3137 3137 3137 3137 3136 3136 3135 3135 3135 3134 3133 3132 3131 3132 3132 3132 3132 3131 3130 3130 3130 3130 3130 3130 3130 3130 3130 3129 3129 3128 3128 3128 3128 3128 3128 3128 3128 3127 3127 3127 3127 3127 3127 3127 3127 3127 3127 3127 3127 3127 3126
3112 3113 3113 3114 3115 3115 3116 3117 3118 3119 3119 3120 3120 3121 3122 3122 3121 3122 3123 3125 3126 3127 3128 3129 3129 3130 3130 3130 3131 3133 3133 3133 3133 3133 3133 3134 3134 3134 3133 3134 3134 3135 3135 3136 3136 3136 3136 3136 3136 3136 3136 3136 3136 3136 3136 3136 3135 3135 3135 3134 3134 3133 3132 3131 3130 3130 3130 3130 3130 3130 3130 3129 3129 3129 3129 3129 3129 3129 3129 3128 3128 3128 3127 3127 3127 3127 3127 3127 3127 3127 3127 3126 3126 3126 3126 3126 3126 3126 3126 3126 3126 3126 3125
3109 3110 3110 3111 3112 3113 3114 3115 3115 3116 3117 3117 3118 3119 3119 3119 3119 3120 3120 3122 3124 3126 3127 3128 3129 3129 3130 3130 3130 3131 3132 3132 3132 3131 3132 3132 3132 3132 3132 3133 3133 3134 3134 3135 3135 3135 3135 3135 3135 3135 3135 3135 3135 3135 3135 3135 3135 3134 3134 3134 3133 3132 3131 3131 3130 3130 3130 3130 3129 3129 3129 3128 3128 3128 3128 3128 3128 3128 3128 3127 3127 3127 3126 3126 3126 3126 3126 3126 3126 3126 3126 3126 3126 3125 3125 3125 3125 3125 3125 3125 3125 3125 3125
3106 3107 3108 3108 3109 3110 3110 3111 3112 3114 3115 3115 3116 3116 3117 3117 3117 3118 3118 3120 3122 3125 3126 3127 3128 3128 3128 3129 3129 3130 3130 3131 3130 3130 3130 3130 3130 3131 3131 3131 3132 3133 3133 3134 3134 3134 3134 3134 3134 3134 3134 3134 3134 3135 3135 3134 3134 3133 3133 3133 3133 3132 3131 3130 3130 3129 3129 3128 3128 3128 3128 3128 3127 3127 3127 3127 3127 3127 3127 3126 3126 3126 3126 3125 3125 3125 3125 3125 3125 3125 3125 3125 3125 3125 3125 3125 3125 3124 3124 3124 3124 3124 3123
3103 3104 3105 3105 3106 3107 3107 3108 3110 3111 3112 3113 3114 3115 3115 3115 3116 3116 3117 3118 3120 3123 3125 3126 3127 3127 3127 3127 3128 3129 3129 3129 3129 3128 3128 3129 3129 3130 3130 3130 3131 3132 3132 3132 3132 3133 3133 3133 3133 3133 3133 3133 3133 3134 3134 3133 3133 3133 3132 3132 3132 3131 3130 3130 3129 3129 3128 3127 3127 3127 3127 3126 3126 3126 3126 3126 3126 3126 3125 3125 3125 3125 3125 3125 3125 3124 3124 3124 3124 3124 3124 3124 3124 3124 3124 3124 3123 3123 3123 3123 3123 3123 3122
3100 3100 3101 3102 3103 3104 3104 3105 3106 3108 3110 3111 3112 3112 3113 3114 3115 3115 3116 3116 3118 3121 3124 3125 3125 3125 3125 3126 3127 3127 3128 3128 3127 3126 3126 3127 3128 3128 3128 3129 3130 3130 3131 3131 3131 3131 3132 3132 3132 3132 3132 3132 3132 3133 3133 3133 3132 3132 3132 3131 3131 3130 3130 3129 3129 3128 3128 3127 3126 3126 3125 3125 3125 3125 3125 3125 3125 3125 3125 3125 3124 3124 3124 3124 3124 3123 3123 3123 3123 3123 3123 3123 3123 3123 3123 3122 3122 3122 3122 3122 3122 3122 3121
3096 3097 3098 3099 3100 3100 3101 3102 3104 3105 3107 3108 3109 3110 3111 3112 3113 3115 3115 3115 3117 3119 3121 3123 3124 3124 3124 3124 3125 3125 3125 3125 3125 3124 3124 3125 3126 3127 3127 3128 3128 3129 3129 3130 3130 3130 3131 3131 3131 3131 3131 3131 3131 3131 3131 3131 3131 3131 3131 3130 3130 3130 3129 3129 3128 3128 3127 3126 3126 3125 3125 3125 3124 3124 3124 3124 3124 3124 3124 3123 3123 3123 3123 3123 3122 3122 3122 3122 3122 3122 3122 3122 3122 3122 3122 3121 3121 3121 3121 3121 3121 3120 3120
3093 3094 3095 3096 3097 3097 3098 3100 3101 3102 3104 3105 3107 3108 3109 3110 3111 3113 3114 3115 3116 3118 3120 3120 3121 3122 3122 3122 3123 3123 3123 3123 3123 3122 3122 3123 3124 3125 3125 3126 3127 3127 3128 3128 3129 3129 3130 3130 3130 3130 3130 3130 3130 3130 3130 3130 3130 3130 3130 3130 3129 3129 3128 3128 3127 3127 3126 3125 3125 3125 3124 3124 3124 3123 3123 3123 3123 3122 3122 3122 3122 3122 3122 3122 3122 3121 3121 3121 3121 3121 3121 3121 3121 3121 3121 3120 3120 3120 3120 3120 3120 3120 3119
3090 3091 3092 3093 3093 3094 3095 3096 3098 3099 3100 3102 3104 3105 3107 3108 3109 3110 3112 3114 3115 3116 3117 3117 3119 3120 3120 3120 3121 3121 3121 3120 3120 3120 3121 3122 3123 3124 3124 3125 3125 3126 3126 3127 3127 3128 3128 3129 3129 3129 3129 3129 3130 3130 3130 3130 3130 3130 3129 3129 3128 3128 3127 3127 3127 3126 3125 3125 3125 3124 3124 3123 3123 3122 3122 3122 3121 3121 3121 3121 3121 3121 3121 3121 3121 3121 3120 3120 3120 3120 3120 3120 3120 3120 3120 3120 3119 3119 3119 3119 3119 3118 3118
3087 3088 3089 3090 3090 3091 3092 3093 3095 3096 3098 3099 3101 3102 3104 3106 3107 3108 3110 3111 3113 3114 3114 3115 3116 3118 3119 3119 3119 3119 3119 3119 3119 3119 3120 3121 3121 3122 3123 3123 3124 3125 3125 3125 3126 3126 3127 3128 3128 3128 3128 3128 3128 3128 3128 3128 3129 3128 3128 3128 3127 3127 3127 3126 3126 3125 3125 3124 3124 3123 3123 3122 3122 3121 3121 3121 3120 3120 3120 3120 3120 3120 3120 3120 3120 3120 3120 3120 3120 3120 3119 3119 3119 3119 3119 3118 3118 3118 3118 3118 3117 3117 3117
3083 3084 3085 3086 3087 3088 3090 3090 3092 3093 3095 3096 3098 3099 3101 3103 3105 3106 3108 3109 3110 3112 3113 3113 3114 3116 3116 3116 3117 3117 3118 3118 3118 3119 3120 3120 3120 3120 3121 3122 3122 3123 3123 3124 3125 3125 3126 3126 3127 3127 3127 3127 3127 3127 3127 3127 3127 3127 3127 3127 3126 3126 3126 3125 3125 3125 3124 3124 3123 3123 3122 3121 3121 3120 3120 3120 3120 3120 3120 3120 3120 3120 3120 3119 3119 3119 3119 3119 3119 3118 3118 3118 3118 3118 3117 3117 3117 3117 3117 3116 3116 3116 3116
3079 3081 3082 3083 3084 3085 3087 3088 3089 3090 3092 3094 3095 3096 3098 3100 3102 3104 3105 3107 3109 3111 3112 3113 3113 3114 3114 3115 3115 3115 3116 3116 3117 3118 3118 3119 3119 3119 3120 3120 3121 3121 3122 3122 3123 3124 3124 3125 3125 3125 3125 3126 3126 3126 3126 3126 3126 3126 3126 3126 3125 3125 3125 3124 3124 3124 3123 3123 3122 3122 3121 3121 3120 3120 3119 3119 3119 3119 3119 3119 3119 3119 3119 3118 3118 3118 3118 3118 3118 3117 3117 3117 3116 3116 3116 3116 3116 3115 3115 3115 3115 3115 3115
3076 3077 3079 3080 3081 3083 3084 3085 3086 3088 3089 3090 3092 3094 3095 3098 3100 3102 3104 3105 3107 3108 3109 3110 3111 3112 3113 3113 3113 3114 3114 3115 3115 3116 3117 3117 3118 3118 3118 3118 3119 3120 3120 3121 3122 3122 3123 3123 3124 3124 3124 3124 3125 3125 3125 3125 3125 3125 3125 3125 3125 3124 3124 3123 3123 3122 3122 3121 3121 3120 3120 3120 3119 3119 3118 3118 3118 3118 3118 3118 3118 3118 3118 3117 3117 3117 3117 3117 3116 3116 3116 3116 3115 3115 3115 3115 3115 3114 3114 3114 3114 3114 3113
3073 3074 3075 3077 3078 3080 3081 3082 3083 3085 3086 3088 3089 3091 3093 3095 3097 3099 3101 3103 3104 3105 3105 3107 3109 3110 3111 3111 3112 3112 3112 3113 3113 3114 3115 3115 3116 3116 3116 3117 3117 3118 3119 3120 3120 3121 3121 3121 3122 3122 3123 3123 3123 3123 3124 3124 3124 3124 3124 3124 3123 3123 3123 3122 3122 3121 3121 3120 3120 3120 3119 3119 3119 3118 3118 3117 3117 3117 3117 3117 3117 3117 3117 3116 3116 3116 3116 3115 3115 3115 3115 3115 3114 3114 3114 3114 3113 3113 3113 3113 3113 3112 3112
3070 3071 3073 3074 3075 3077 3078 3079 3080 3082 3083 3085 3087 3088 3090 3092 3094 3096 3098 3100 3101 3103 3105 3104 3105 3108 3109 3110 3110 3110 3110 3111 3112 3113 3114 3114 3114 3115 3115 3115 3115 3116 3117 3118 3119 3119 3119 3120 3120 3120 3121 3121 3121 3122 3122 3122 3122 3122 3122 3122 3122 3122 3122 3121 3121 3120 3120 3119 3119 3119 3118 3118 3118 3117 3117 3116 3116 3116 3116 3116 3116 3116 3116 3115 3115 3115 3115 3115 3114 3114 3114 3114 3113 3113 3113 3112 3112 3112 3112 3111 3111 3111 3111
3068 3069 3070 3071 3072 3074 3075 3076 3078 3079 3080 3082 3084 3085 3087 3089 3091 3093 3095 3096 3098 3100 3102 3103 3104 3105 3107 3108 3108 3108 3109 3109 3110 3111 3112 3112 3112 3113 3113 3113 3113 3114 3115 3116 3117 3117 3117 3118 3118 3119 3119 3120 3120 3120 3120 3121 3121 3121 3121 3121 3121 3121 3121 3120 3120 3120 3119 3118 3118 3118 3117 3117 3117 3116 3116 3115 3115 3115 3115 3115 3115 3115 3115 3115 3115 3114 3114 3114 3113 3113 3113 3112 3112 3112 3112 3111 3111 3111 3110 3110 3110 3110 3109
3065 3066 3067 3069 3070 3071 3072 3074 3075 3076 3078 3079 3081 3083 3084 3086 3088 3090 3092 3093 3095 3097 3099 3102 3103 3103 3105 3105 3106 3106 3107 3108 3109 3110 3110 3110 3110 3111 3111 3111 3111 3112 3113 3115 3115 3115 3115 3115 3116 3117 3117 3118 3118 3119 3119 3119 3120 3120 3120 3120 3120 3120 3120 3120 3119 3119 3118 3117 3117 3117 3116 3116 3115 3115 3115 3115 3115 3115 3115 3115 3114 3114 3114 3114 3114 3113 3113 3113 3112 3112 3112 3111 3111 3111 3111 3110 3110 3110 3110 3109 3109 3108 3108
3063 3064 3065 3066 3067 3069 3070 3071 3072 3073 3075 3076 3078 3080 3082 3084 3085 3087 3089 3090 3092 3095 3097 3100 3101 3101 3102 3103 3104 3104 3105 3105 3106 3107 3108 3109 3109 3109 3110 3110 3110 3111 3112 3112 3113 3113 3112 3113 3114 3114 3115 3115 3116 3117 3117 3117 3118 3118 3118 3118 3119 3119 3119 3119 3118 3118 3117 3116 3116 3115 3115 3115 3115 3114 3114 3114 3114 3114 3114 3114 3114 3113 3113 3113 3112 3112 3112 3112 3111 3111 3110 3110 3110 3110 3109 3109 3109 3109 3108 3108 3107 3107 3106
3061 3062 3063 3064 3065 3066 3067 3068 3070 3070 3071 3073 3075 3077 3079 3081 3083 3085 3086 3088 3090 3093 3095 3097 3098 3100 3100 3101 3102 3102 3103 3103 3104 3105 3106 3107 3107 3107 3108 3108 3109 3109 3110 3110 3110 3110 3111 3111 3111 3111 3112 3113 3114 3115 3115 3116 3116 3116 3117 3117 3117 3117 3118 3118 3118 3117 3116 3116 3115 3115 3114 3114 3113 3113 3113 3113 3113 3113 3113 3113 3113 3112 3112 3112 3111 3111 3111 3110 3110 3110 3110 3109 3109 3108 3108 3108 3107 3107 3107 3106 3106 3105 3105
3058 3060 3061 3062 3063 3064 3065 3066 3067 3068 3069 3070 3073 3075 3076 3078 3080 3082 3084 3086 3088 3090 3093 3095 3096 3097 3098 3099 3100 3100 3101 3101 3102 3103 3104 3105 3105 3105 3106 3106 3107 3107 3108 3107 3108 3108 3109 3109 3108 3108 3109 3110 3112 3113 3114 3114 3115 3115 3115 3115 3115 3116 3116 3116 3117 3116 3116 3115 3115 3114 3114 3113 3113 3112 3112 3112 3111 3111 3111 3111 3111 3111 3111 3111 3110 3110 3110 3110 3109 3109 3109 3108 3108 3107 3107 3106 3106 3106 3105 3105 3105 3104 3104
3056 3057 3059 3060 3061 3062 3063 3064 3064 3065 3066 3068 3070 3072 3074 3076 3078 3080 3082 3084 3086 3089 3091 3093 3094 3095 3097 3097 3098 3099 3099 3100 3100 3101 3102 3102 3103 3104 3104 3105 3105 3105 3105 3105 3106 3106 3106 3107 3106 3106 3106 3108 3110 3111 3112 3112 3113 3113 3113 3114 3114 3114 3115 3115 3114 3114 3114 3114 3113 3113 3112 3112 3111 3111 3110 3110 3110 3110 3110 3110 3110 3110 3110 3110 3109 3109 3109 3108 3108 3108 3108 3107 3107 3106 3105 3105 3105 3104 3104 3104 3103 3103 3102
3054 3055 3056 3058 3059 3060 3061 3061 3062 3063 3064 3065 3067 3069 3071 3073 3075 3077 3080 3082 3084 3086 3089 3091 3092 3093 3095 3095 3095 3096 3097 3098 3098 3099 3100 3100 3100 3101 3102 3103 3103 3103 3104 3104 3104 3105 3105 3105 3105 3105 3105 3107 3108 3110 3110 3110 3111 3111 3112 3112 3112 3113 3113 3113 3113 3113 3112 3111 3110 3110 3110 3110 3110 3109 3109 3109 3109 3109 3109 3109 3109 3109 3109 3108 3108 3108 3107 3107 3107 3106 3106 3106 3105 3105 3104 3104 3103 3103 3103 3102 3102 3101 3101
3051 3053 3054 3055 3057 3058 3059 3059 3060 3060 3061 3063 3064 3066 3069 3070 3073 3075 3077 3080 3082 3084 3087 3089 3090 3091 3092 3093 3094 3095 3095 3095 3096 3097 3097 3098 3098 3100 3100 3101 3101 3102 3103 3103 3103 3104 3104 3104 3103 3104 3104 3105 3107 3108 3108 3108 3109 3110 3110 3110 3111 3111 3112 3112 3112 3112 3112 3111 3110 3109 3109 3109 3108 3108 3108 3108 3108 3108 3108 3108 3108 3108 3107 3107 3107 3106 3106 3106 3105 3105 3105 3105 3104 3104 3103 3102 3102 3101 3101 3101 3100 3100 3099
3048 3050 3051 3053 3054 3055 3056 3057 3058 3058 3059 3060 3062 3064 3066 3068 3070 3072 3075 3077 3080 3082 3084 3086 3088 3089 3090 3090 3091 3092 3092 3092 3093 3094 3095 3095 3096 3097 3098 3099 3100 3100 3101 3101 3101 3102 3102 3102 3102 3102 3103 3104 3105 3105 3106 3106 3107 3108 3109 3109 3110 3110 3110 3111 3111 3110 3111 3110 3110 3110 3110 3109 3108 3108 3108 3108 3108 3107 3107 3107 3106 3106 3106 3106 3106 3105 3105 3105 3104 3104 3104 3103 3103 3103 3102 3101 3100 3100 3100 3099 3099 3098 3098
3045 3047 3049 3050 3052 3053 3054 3055 3055 3056 3057 3058 3060 3061 3063 3065 3068 3070 3073 3075 3077 3080 3082 3084 3085 3086 3087 3088 3089 3089 3089 3090 3090 3091 3091 3092 3094 3095 3096 3097 3098 3099 3100 3099 3099 3099 3099 3100 3100 3100 3101 3102 3102 3103 3104 3105 3105 3106 3107 3107 3108 3109 3109 3110 3110 3110 3110 3109 3109 3109 3109 3108 3108 3107 3107 3107 3107 3106 3106 3105 3105 3105 3105 3105 3104 3104 3104 3104 3103 3103 3102 3102 3101 3101 3100 3100 3099 3099 3098 3098 3097 3097 3096
3043 3045 3046 3048 3049 3050 3051 3052 3053 3054 3055 3056 3057 3059 3061 3063 3065 3067 3070 3073 3075 3077 3080 3082 3083 3085 3085 3086 3086 3086 3086 3086 3087 3088 3089 3090 3091 3093 3094 3095 3096 3097 3097 3097 3096 3096 3096 3097 3097 3098 3099 3100 3100 3101 3102 3103 3104 3105 3105 3106 3107 3107 3108 3108 3108 3108 3108 3108 3107 3107 3107 3107 3106 3106 3105 3105 3105 3105 3105 3104 3104 3104 3103 3103 3103 3103 3103 3102 3102 3102 3101 3100 3100 3100 3099 3098 3098 3097 3096 3096 3095 3095 3095
3040 3042 3044 3045 3047 3048 3049 3050 3051 3052 3053 3054 3055 3056 3058 3060 3062 3065 3068 3070 3073 3075 3077 3079 3081 3083 3083 3084 3084 3084 3084 3084 3084 3085 3086 3088 3089 3091 3092 3093 3094 3095 3095 3094 3093 3093 3094 3095 3095 3096 3097 3098 3099 3099 3100 3101 3102 3103 3104 3105 3105 3106 3106 3106 3107 3107 3107 3106 3106 3106 3105 3105 3105 3104 3104 3104 3104 3104 3103 3103 3102 3102 3101 3101 3101 3101 3102 3101 3101 3100 3100 3099 3099 3098 3098 3097 3096 3095 3095 3094 3094 3093 3093
3037 3039 3041 3043 3044 3045 3046 3047 3048 3049 3050 3051 3053 3054 3056 3058 3060 3062 3065 3068 3070 3073 3075 3077 3079 3080 3081 3081 3081 3081 3081 3082 3082 3084 3085 3086 3087 3089 3090 3091 3092 3092 3092 3092 3092 3092 3093 3093 3094 3095 3096 3097 3097 3097 3098 3099 3100 3101 3102 3103 3104 3104 3105 3105 3105 3105 3105 3105 3105 3105 3104 3104 3104 3103 3103 3102 3102 3102 3101 3101 3100 3100 3100 3100 3100 3100 3100 3100 3100 3100 3099 3098 3097 3097 3096 3095 3094 3094 3093 3092 3092 3091 3091
3034 3036 3038 3040 3042 3043 3044 3045 3046 3047 3048 3049 3050 3052 3053 3055 3058 3060 3063 3065 3068 3070 3072 3074 3076 3077 3078 3078 3078 3079 3079 3080 3081 3082 3083 3085 3086 3087 3088 3089 3090 3090 3089 3090 3091 3091 3092 3093 3094 3095 3096 3096 3096 3095 3096 3097 3098 3099 3100 3101 3102 3103 3103 3103 3104 3104 3104 3103 3103 3103 3103 3103 3102 3102 3101 3101 3100 3100 3100 3100 3100 3100 3100 3100 3100 3100 3100 3100 3099 3098 3097 3097 3096 3095 3095 3094 3093 3092 3091 3091 3090 3090 3089
3031 3033 3035 3037 3039 3040 3041 3043 3044 3045 3046 3047 3048 3049 3051 3053 3055 3058 3060 3063 3065 3068 3070 3072 3073 3074 3075 3075 3076 3076 3077 3078 3079 3080 3081 3083 3084 3085 3085 3086 3087 3087 3087 3088 3090 3091 3091 3092 3093 3094 3095 3095 3095 3094 3094 3095 3096 3098 3099 3100 3100 3101 3102 3102 3102 3102 3102 3101 3101 3101 3100 3100 3100 3100 3100 3099 3099 3098 3098 3099 3099 3099 3099 3099 3099 3099 3099 3098 3097 3096 3096 3095 3095 3094 3093 3092 3091 3090 3090 3089 3088 3088 3087
3028 3030 3033 3035 3036 3038 3039 3040 3041 3043 3044 3045 3046 3047 3049 3051 3053 3055 3058 3060 3063 3065 3068 3069 3070 3072 3073 3073 3074 3075 3075 3076 3077 3078 3080 3081 3082 3083 3083 3084 3084 3084 3085 3086 3088 3090 3091 3092 3093 3093 3094 3094 3094 3093 3093 3094 3095 3096 3097 3098 3099 3100 3100 3100 3100 3100 3100 3100 3099 3099 3098 3098 3098 3098 3098 3098 3097 3097 3098 3099 3099 3099 3098 3098 3098 3098 3097 3097 3096 3095 3094 3094 3093 3092 3091 3090 3090 3089 3088 3087 3086 3086 3085
3026 3028 3030 3032 3034 3035 3037 3038 3039 3040 3042 3043 3044 3045 3047 3049 3051 3054 3056 3058 3061 3063 3065 3067 3068 3069 3071 3071 3072 3073 3074 3074 3075 3076 3078 3079 3080 3081 3081 3081 3081 3082 3083 3085 3087 3089 3090 3091 3091 3092 3093 3093 3093 3092 3092 3092 3093 3094 3095 3096 3097 3098 3099 3099 3099 3099 3099 3098 3098 3097 3097 3097 3097 3097 3097 3097 3097 3097 3098 3098 3098 3098 3097 3097 3096 3096 3095 3095 3094 3094 3093 3092 3091 3091 3090 3089 3088 3087 3086 3085 3085 3084 3084
3023 3025 3027 3030 3031 3033 3035 3036 3037 3038 3040 3041 3042 3043 3045 3047 3049 3051 3054 3056 3058 3060 3062 3064 3065 3067 3068 3070 3070 3071 3071 3072 3074 3075 3076 3077 3078 3079 3080 3080 3080 3081 3082 3084 3086 3088 3090 3090 3090 3091 3092 3092 3091 3091 3090 3091 3091 3092 3093 3095 3095 3097 3098 3098 3098 3098 3097 3097 3096 3096 3095 3095 3095 3095 3096 3096 3096 3096 3096 3097 3097 3096 3095 3095 3095 3094 3094 3093 3092 3092 3091 3091 3090 3089 3088 3087 3086 3085 3085 3084 3083 3083 3082
3021 3023 3025 3027 3029 3031 3032 3034 3035 3036 3038 3039 3040 3041 3043 3045 3047 3049 3051 3053 3055 3057 3060 3061 3063 3065 3066 3067 3068 3069 3069 3070 3072 3074 3075 3076 3077 3077 3078 3079 3079 3080 3081 3083 3085 3087 3089 3089 3089 3090 3090 3090 3090 3090 3089 3089 3090 3090 3092 3093 3094 3095 3096 3097 3097 3096 3096 3095 3095 3094 3094 3094 3094 3095 3095 3095 3095 3095 3095 3095 3095 3095 3094 3093 3093 3092 3092 3091 3091 3090 3090 3089 3088 3088 3087 3086 3085 3084 3083 3082 3082 3081 3080
3019 3020 3022 3024 3026 3029 3030 3031 3033 3034 3035 3037 3038 3039 3040 3042 3045 3047 3049 3050 3053 3055 3057 3059 3060 3062 3064 3065 3065 3066 3067 3068 3070 3072 3073 3074 3075 3076 3077 3077 3078 3079 3080 3083 3084 3085 3087 3088 3088 3088 3089 3089 3088 3088 3087 3087 3087 3089 3090 3091 3092 3094 3095 3095 3095 3095 3094 3094 3093 3093 3093 3093 3093 3093 3094 3094 3094 3094 3094 3093 3093 3092 3092 3091 3091 3090 3090 3090 3089 3089 3088 3087 3087 3086 3085 3085 3084 3083 3082 3081 3080 3079 3079
3016 3018 3020 3022 3024 3026 3028 3029 3030 3032 3033 3035 3036 3037 3039 3040 3042 3045 3046 3048 3050 3052 3054 3056 3058 3060 3061 3062 3063 3064 3065 3067 3069 3070 3071 3072 3073 3075 3076 3076 3076 3078 3080 3082 3083 3084 3085 3085 3086 3086 3086 3087 3086 3086 3086 3086 3086 3088 3089 3090 3091 3092 3093 3094 3094 3094 3093 3092 3091 3091 3091 3091 3091 3091 3091 3092 3092 3092 3091 3091 3091 3090 3090 3090 3089 3089 3088 3088 3087 3087 3086 3086 3085 3085 3084 3083 3083 3082 3080 3080 3079 3078 3077
3014 3016 3018 3019 3021 3023 3025 3027 3028 3030 3031 3032 3034 3035 3036 3038 3040 3042 3044 3046 3048 3050 3052 3054 3055 3057 3058 3059 3060 3062 3063 3065 3067 3068 3069 3070 3071 3073 3075 3075 3076 3078 3080 3081 3081 3082 3082 3083 3084 3084 3085 3085 3085 3085 3085 3085 3086 3087 3088 3089 3090 3090 3091 3092 3092 3092 3091 3090 3090 3090 3089 3089 3089 3090 3090 3090 3090 3090 3089 3089 3089 3089 3088 3088 3087 3087 3086 3086 3085 3085 3085 3084 3084 3083 3083 3082 3081 3080 3079 3078 3077 3076 3075
3012 3014 3015 3017 3019 3021 3023 3025 3026 3027 3029 3030 3031 3033 3035 3036 3038 3040 3042 3044 3046 3048 3050 3052 3053 3055 3056 3057 3058 3060 3062 3064 3065 3066 3067 3069 3070 3071 3073 3075 3076 3078 3079 3079 3079 3079 3080 3082 3082 3082 3083 3083 3083 3083 3084 3085 3086 3086 3087 3088 3088 3089 3090 3090 3091 3090 3090 3089 3088 3088 3088 3088 3088 3088 3088 3088 3088 3088 3088 3088 3087 3087 3086 3086 3085 3085 3085 3084 3084 3083 3083 3082 3082 3082 3081 3081 3080 3079 3077 3076 3075 3074 3073
3010 3011 3013 3015 3016 3018 3020 3022 3024 3025 3027 3028 3030 3031 3033 3034 3036 3038 3040 3042 3045 3046 3048 3050 3051 3052 3054 3055 3056 3059 3060 3062 3063 3065 3066 3068 3069 3070 3072 3073 3075 3077 3077 3077 3077 3078 3080 3080 3081 3081 3080 3082 3082 3082 3083 3084 3085 3085 3085 3086 3086 3087 3088 3089 3089 3089 3088 3087 3087 3086 3086 3086 3086 3086 3086 3086 3086 3086 3086 3085 3085 3085 3085 3084 3084 3083 3083 3083 3082 3082 3081 3081 3080 3080 3080 3079 3078 3077 3075 3074 3073 3072 3071
3006 3009 3010 3012 3014 3016 3018 3020 3022 3023 3025 3026 3027 3029 3031 3032 3034 3036 3039 3041 3043 3045 3046 3048 3049 3050 3052 3053 3055 3057 3059 3060 3062 3063 3065 3067 3068 3070 3071 3073 3074 3075 3075 3076 3076 3078 3079 3080 3080 3079 3079 3080 3081 3081 3082 3083 3084 3084 3084 3084 3085 3085 3085 3086 3087 3087 3086 3085 3085 3084 3084 3084 3084 3084 3084 3084 3084 3084 3084 3084 3083 3083 3083 3082 3082 3082 3081 3081 3081 3080 3080 3080 3079 3079 3078 3078 3076 3075 3074 3072 3071 3070 3069
3003 3005 3008 3010 3012 3014 3016 3018 3019 3021 3022 3024 3025 3027 3029 3030 3032 3034 3036 3039 3041 3043 3045 3046 3047 3049 3050 3051 3053 3055 3057 3058 3060 3061 3064 3066 3067 3069 3070 3072 3073 3074 3075 3075 3075 3076 3077 3078 3078 3077 3077 3079 3080 3080 3081 3082 3082 3082 3082 3082 3082 3083 3084 3084 3085 3085 3085 3084 3083 3083 3083 3083 3082 3082 3082 3082 3082 3082 3082 3082 3082 3081 3081 3081 3081 3080 3080 3080 3080 3079 3079 3078 3078 3077 3076 3076 3075 3073 3072 3070 3069 3068 3067
3000 3003 3005 3007 3009 3011 3013 3015 3017 3019 3020 3022 3024 3025 3027 3028 3030 3032 3035 3037 3039 3041 3043 3044 3045 3046 3048 3049 3051 3053 3055 3056 3058 3060 3062 3065 3066 3068 3069 3070 3072 3073 3074 3074 3074 3075 3075 3076 3076 3076 3076 3077 3078 3078 3079 3080 3081 3081 3080 3080 3080 3081 3082 3083 3083 3083 3083 3082 3081 3081 3081 3081 3081 3081 3081 3081 3081 3081 3080 3080 3080 3080 3080 3080 3080 3079 3079 3079 3078 3078 3077 3076 3076 3075 3075 3074 3073 3071 3070 3068 3067 3066 3065
2997 3000 3002 3005 3006 3009 3011 3013 3015 3016 3018 3020 3022 3023 3025 3027 3029 3031 3033 3035 3038 3040 3041 3042 3043 3045 3046 3047 3049 3051 3053 3055 3056 3059 3061 3063 3065 3066 3068 3069 3070 3071 3072 3073 3073 3074 3074 3074 3075 3075 3075 3075 3075 3076 3077 3078 3079 3079 3079 3079 3079 3080 3080 3081 3081 3081 3081 3080 3080 3080 3080 3080 3080 3080 3080 3080 3080 3080 3079 3079 3079 3079 3079 3079 3078 3078 3078 3077 3076 3076 3075 3075 3074 3074 3073 3072 3070 3069 3068 3066 3065 3065 3064
2994 2996 2999 3001 3004 3006 3008 3010 3012 3014 3016 3018 3020 3021 3023 3025 3027 3029 3031 3034 3036 3038 3039 3040 3042 3043 3044 3046 3048 3050 3051 3053 3055 3057 3060 3061 3063 3064 3066 3067 3069 3070 3071 3071 3072 3072 3073 3073 3074 3074 3073 3073 3073 3074 3075 3075 3076 3076 3076 3076 3077 3078 3079 3079 3080 3080 3080 3079 3079 3079 3079 3079 3079 3079 3079 3079 3079 3079 3079 3078 3078 3078 3078 3077 3077 3076 3076 3075 3075 3074 3074 3073 3072 3072 3071 3070 3069 3067 3066 3065 3064 3063 3062